Location: Lynch Observatory
(39.9540°N, 75.1861°W)
Time: 00:32:26
(UTC-04:00)

ZACube-1 - Pass Details

Date: 30 April 2024
Orbit: 566 x 635 km, 97.7° (Epoch: 27 May)

Event Time Altitude Azimuth Distance (km) Brightness Sun altitude
Rises 03:05:47 0° 26° (NNE) 2,940 ? -27.6°
Reaches altitude 10° 03:08:23 10° 41° (NE) 2,030 ? -27.3°
Maximum altitude 03:11:56 23° 94° (E) 1,352 ? -26.9°
Enters shadow 03:13:05 21° 118° (ESE) 1,438 ? -26.7°
